Year,Month,Day,Hour,Minute,Value (Times are PST for temperature in C)
2014,06,21,00,00,12.20
2014,06,21,00,01,12.20
2014,06,21,00,02,12.20
2014,06,21,00,03,12.20
2014,06,21,00,04,12.10
2014,06,21,00,05,12.10
2014,06,21,00,06,12.10
2014,06,21,00,07,12.10
2014,06,21,00,08,12.10
2014,06,21,00,09,12.10
2014,06,21,00,10,12.10
2014,06,21,00,11,12.10
2014,06,21,00,12,12.00
2014,06,21,00,13,12.00
2014,06,21,00,14,12.00
2014,06,21,00,15,12.00
2014,06,21,00,16,12.00
2014,06,21,00,17,12.00
2014,06,21,00,18,11.90
2014,06,21,00,19,11.90
2014,06,21,00,20,11.90
2014,06,21,00,21,11.90
2014,06,21,00,22,11.90
2014,06,21,00,23,11.90
2014,06,21,00,24,11.90
2014,06,21,00,25,11.90
2014,06,21,00,26,11.80
2014,06,21,00,27,11.80
2014,06,21,00,28,11.80
2014,06,21,00,29,11.80
2014,06,21,00,30,11.80
2014,06,21,00,31,11.80
2014,06,21,00,32,11.80
2014,06,21,00,33,11.80
2014,06,21,00,34,11.80
2014,06,21,00,35,11.80
2014,06,21,00,36,11.80
2014,06,21,00,37,11.80
2014,06,21,00,38,11.80
2014,06,21,00,39,11.80
2014,06,21,00,40,11.80
2014,06,21,00,41,11.80
2014,06,21,00,42,11.80
2014,06,21,00,43,11.80
2014,06,21,00,44,11.80
2014,06,21,00,45,11.80
2014,06,21,00,46,11.80
2014,06,21,00,47,11.70
2014,06,21,00,48,11.70
2014,06,21,00,49,11.70
2014,06,21,00,50,11.70
2014,06,21,00,51,11.70
2014,06,21,00,52,11.70
2014,06,21,00,53,11.70
2014,06,21,00,54,11.70
2014,06,21,00,55,11.70
2014,06,21,00,56,11.70
2014,06,21,00,57,11.70
2014,06,21,00,58,11.70
2014,06,21,00,59,11.60
2014,06,21,01,00,11.60
2014,06,21,01,01,11.60
2014,06,21,01,02,11.60
2014,06,21,01,03,11.60
2014,06,21,01,04,11.60
2014,06,21,01,05,11.60
2014,06,21,01,06,11.60
2014,06,21,01,07,11.60
2014,06,21,01,08,11.60
2014,06,21,01,09,11.60
2014,06,21,01,10,11.60
2014,06,21,01,11,11.50
2014,06,21,01,12,11.50
2014,06,21,01,13,11.50
2014,06,21,01,14,11.50
2014,06,21,01,15,11.50
2014,06,21,01,16,11.50
2014,06,21,01,17,11.50
2014,06,21,01,18,11.50
2014,06,21,01,19,11.50
2014,06,21,01,20,11.50
2014,06,21,01,21,11.40
2014,06,21,01,22,11.40
2014,06,21,01,23,11.40
2014,06,21,01,24,11.40
2014,06,21,01,25,11.40
2014,06,21,01,26,11.40
2014,06,21,01,27,11.30
2014,06,21,01,28,11.30
2014,06,21,01,29,11.30
2014,06,21,01,30,11.30
2014,06,21,01,31,11.30
2014,06,21,01,32,11.30
2014,06,21,01,33,11.30
2014,06,21,01,34,11.30
2014,06,21,01,35,11.30
2014,06,21,01,36,11.20
2014,06,21,01,37,11.20
2014,06,21,01,38,11.20
2014,06,21,01,39,11.20
2014,06,21,01,40,11.20
2014,06,21,01,41,11.20
2014,06,21,01,42,11.20
2014,06,21,01,43,11.20
2014,06,21,01,44,11.20
2014,06,21,01,45,11.20
2014,06,21,01,46,11.20
2014,06,21,01,47,11.20
2014,06,21,01,48,11.20
2014,06,21,01,49,11.20
2014,06,21,01,50,11.20
2014,06,21,01,51,11.20
2014,06,21,01,52,11.20
2014,06,21,01,53,11.20
2014,06,21,01,54,11.20
2014,06,21,01,55,11.20
2014,06,21,01,56,11.20
2014,06,21,01,57,11.20
2014,06,21,01,58,11.20
2014,06,21,01,59,11.10
2014,06,21,02,00,11.10
2014,06,21,02,01,11.10
2014,06,21,02,02,11.10
2014,06,21,02,03,11.10
2014,06,21,02,04,11.10
2014,06,21,02,05,11.00
2014,06,21,02,06,11.00
2014,06,21,02,07,11.00
2014,06,21,02,08,10.90
2014,06,21,02,09,10.90
2014,06,21,02,10,10.90
2014,06,21,02,11,10.90
2014,06,21,02,12,10.90
2014,06,21,02,13,10.90
2014,06,21,02,14,10.90
2014,06,21,02,15,10.90
2014,06,21,02,16,10.90
2014,06,21,02,17,10.90
2014,06,21,02,18,10.80
2014,06,21,02,19,10.80
2014,06,21,02,20,10.80
2014,06,21,02,21,10.80
2014,06,21,02,22,10.80
2014,06,21,02,23,10.80
2014,06,21,02,24,10.80
2014,06,21,02,25,10.80
2014,06,21,02,26,10.80
2014,06,21,02,27,10.70
2014,06,21,02,28,10.70
2014,06,21,02,29,10.70
2014,06,21,02,30,10.70
2014,06,21,02,31,10.70
2014,06,21,02,32,10.70
2014,06,21,02,33,10.70
2014,06,21,02,34,10.70
2014,06,21,02,35,10.60
2014,06,21,02,36,10.60
2014,06,21,02,37,10.60
2014,06,21,02,38,10.60
2014,06,21,02,39,10.60
2014,06,21,02,40,10.60
2014,06,21,02,41,10.60
2014,06,21,02,42,10.60
2014,06,21,02,43,10.60
2014,06,21,02,44,10.60
2014,06,21,02,45,10.60
2014,06,21,02,46,10.60
2014,06,21,02,47,10.60
2014,06,21,02,48,10.60
2014,06,21,02,49,10.60
2014,06,21,02,50,10.60
2014,06,21,02,51,10.60
2014,06,21,02,52,10.60
2014,06,21,02,53,10.60
2014,06,21,02,54,10.60
2014,06,21,02,55,10.60
2014,06,21,02,56,10.60
2014,06,21,02,57,10.60
2014,06,21,02,58,10.60
2014,06,21,02,59,10.60
2014,06,21,03,00,10.50
2014,06,21,03,01,10.50
2014,06,21,03,02,10.50
2014,06,21,03,06,10.40
2014,06,21,03,07,10.40
2014,06,21,03,08,10.40
2014,06,21,03,09,10.40
2014,06,21,03,10,10.40
2014,06,21,03,11,10.40
2014,06,21,03,12,10.40
2014,06,21,03,13,10.40
2014,06,21,03,14,10.40
2014,06,21,03,15,10.40
2014,06,21,03,16,10.30
2014,06,21,03,17,10.30
2014,06,21,03,18,10.30
2014,06,21,03,19,10.30
2014,06,21,03,20,10.30
2014,06,21,03,21,10.30
2014,06,21,03,22,10.20
2014,06,21,03,23,10.20
2014,06,21,03,24,10.20
2014,06,21,03,25,10.20
2014,06,21,03,26,10.20
2014,06,21,03,27,10.20
2014,06,21,03,28,10.20
2014,06,21,03,29,10.20
2014,06,21,03,30,10.20
2014,06,21,03,31,10.20
2014,06,21,03,32,10.20
2014,06,21,03,33,10.20
2014,06,21,03,34,10.20
2014,06,21,03,35,10.20
2014,06,21,03,36,10.20
2014,06,21,03,37,10.10
2014,06,21,03,38,10.10
2014,06,21,03,39,10.10
2014,06,21,03,40,10.10
2014,06,21,03,41,10.10
2014,06,21,03,42,10.10
2014,06,21,03,43,10.10
2014,06,21,03,44,10.10
2014,06,21,03,45,10.10
2014,06,21,03,46,10.10
2014,06,21,03,47,10.10
2014,06,21,03,48,10.10
2014,06,21,03,49,10.00
2014,06,21,03,50,10.00
2014,06,21,03,51,10.00
2014,06,21,03,52,10.00
2014,06,21,03,53,10.00
2014,06,21,03,54,10.00
2014,06,21,03,55,10.00
2014,06,21,03,56,10.00
2014,06,21,03,57,10.00
2014,06,21,03,58,10.00
2014,06,21,03,59,10.00
2014,06,21,04,00,10.00
2014,06,21,04,01,10.00
2014,06,21,04,02,10.00
2014,06,21,04,03,10.00
2014,06,21,04,04,10.00
2014,06,21,04,05,10.00
2014,06,21,04,06,10.00
2014,06,21,04,07,10.00
2014,06,21,04,08,10.00
2014,06,21,04,09,10.00
2014,06,21,04,10,10.00
2014,06,21,04,11,10.00
2014,06,21,04,12,10.00
2014,06,21,04,13,10.00
2014,06,21,04,14,10.00
2014,06,21,04,15,10.00
2014,06,21,04,16,10.00
2014,06,21,04,17,10.00
2014,06,21,04,18,10.00
2014,06,21,04,19,10.00
2014,06,21,04,20,10.00
2014,06,21,04,21,9.90
2014,06,21,04,22,10.00
2014,06,21,04,23,9.90
2014,06,21,04,24,9.90
2014,06,21,04,25,9.90
2014,06,21,04,26,9.90
2014,06,21,04,27,9.90
2014,06,21,04,28,9.90
2014,06,21,04,29,9.90
2014,06,21,04,30,9.90
2014,06,21,04,31,9.80
2014,06,21,04,32,9.80
2014,06,21,04,33,9.80
2014,06,21,04,34,9.80
2014,06,21,04,35,9.80
2014,06,21,04,36,9.80
2014,06,21,04,37,9.80
2014,06,21,04,38,9.80
2014,06,21,04,39,9.80
2014,06,21,04,40,9.80
2014,06,21,04,41,9.70
2014,06,21,04,42,9.70
2014,06,21,04,43,9.70
2014,06,21,04,44,9.70
2014,06,21,04,45,9.70
2014,06,21,04,46,9.70
2014,06,21,04,47,9.70
2014,06,21,04,48,9.70
2014,06,21,04,49,9.70
2014,06,21,04,50,9.60
2014,06,21,04,51,9.60
2014,06,21,04,52,9.60
2014,06,21,04,53,9.60
2014,06,21,04,54,9.60
2014,06,21,04,55,9.60
2014,06,21,04,56,9.60
2014,06,21,04,57,9.60
2014,06,21,04,58,9.60
2014,06,21,04,59,9.60
2014,06,21,05,00,9.50
2014,06,21,05,01,9.50
2014,06,21,05,02,9.50
2014,06,21,05,03,9.50
2014,06,21,05,04,9.50
2014,06,21,05,05,9.50
2014,06,21,05,06,9.50
2014,06,21,05,07,9.60
2014,06,21,05,08,9.60
2014,06,21,05,09,9.60
2014,06,21,05,10,9.60
2014,06,21,05,11,9.60
2014,06,21,05,12,9.60
2014,06,21,05,13,9.60
2014,06,21,05,14,9.60
2014,06,21,05,15,9.60
2014,06,21,05,16,9.60
2014,06,21,05,17,9.60
2014,06,21,05,18,9.60
2014,06,21,05,19,9.50
2014,06,21,05,20,9.40
2014,06,21,05,21,9.40
2014,06,21,05,22,9.40
2014,06,21,05,23,9.40
2014,06,21,05,24,9.40
2014,06,21,05,25,9.40
2014,06,21,05,26,9.40
2014,06,21,05,27,9.40
2014,06,21,05,28,9.40
2014,06,21,05,29,9.40
2014,06,21,05,30,9.30
2014,06,21,05,31,9.30
2014,06,21,05,32,9.30
2014,06,21,05,33,9.20
2014,06,21,05,34,9.20
2014,06,21,05,35,9.20
2014,06,21,05,36,9.20
2014,06,21,05,37,9.20
2014,06,21,05,38,9.20
2014,06,21,05,39,9.20
2014,06,21,05,40,9.20
2014,06,21,05,41,9.20
2014,06,21,05,42,9.20
2014,06,21,05,43,9.20
2014,06,21,05,44,9.20
2014,06,21,05,45,9.20
2014,06,21,05,46,9.20
2014,06,21,05,47,9.20
2014,06,21,05,48,9.20
2014,06,21,05,49,9.20
2014,06,21,05,50,9.20
2014,06,21,05,51,9.20
2014,06,21,05,52,9.30
2014,06,21,05,53,9.30
2014,06,21,05,54,9.30
2014,06,21,05,55,9.30
2014,06,21,05,56,9.30
2014,06,21,05,57,9.30
2014,06,21,05,58,9.30
2014,06,21,05,59,9.30
2014,06,21,06,00,9.30
2014,06,21,06,01,9.30
2014,06,21,06,02,9.30
2014,06,21,06,03,9.30
2014,06,21,06,04,9.30
2014,06,21,06,05,9.30
2014,06,21,06,06,9.30
2014,06,21,06,07,9.30
2014,06,21,06,08,9.30
2014,06,21,06,09,9.30
2014,06,21,06,10,9.30
2014,06,21,06,11,9.30
2014,06,21,06,12,9.30
2014,06,21,06,13,9.40
2014,06,21,06,14,9.40
2014,06,21,06,15,9.40
2014,06,21,06,16,9.40
2014,06,21,06,17,9.40
2014,06,21,06,18,9.40
2014,06,21,06,19,9.40
2014,06,21,06,20,9.50
2014,06,21,06,21,9.50
2014,06,21,06,22,9.50
2014,06,21,06,23,9.50
2014,06,21,06,24,9.60
2014,06,21,06,25,9.60
2014,06,21,06,26,9.60
2014,06,21,06,27,9.60
2014,06,21,06,28,9.60
2014,06,21,06,29,9.70
2014,06,21,06,30,9.70
2014,06,21,06,31,9.70
2014,06,21,06,32,9.70
2014,06,21,06,33,9.80
2014,06,21,06,34,9.80
2014,06,21,06,35,9.80
2014,06,21,06,36,9.80
2014,06,21,06,37,9.90
2014,06,21,06,38,9.90
2014,06,21,06,39,9.90
2014,06,21,06,40,10.00
2014,06,21,06,41,10.00
2014,06,21,06,42,10.10
2014,06,21,06,43,10.10
2014,06,21,06,44,10.20
2014,06,21,06,45,10.20
2014,06,21,06,46,10.20
2014,06,21,06,47,10.30
2014,06,21,06,48,10.30
2014,06,21,06,49,10.30
2014,06,21,06,50,10.40
2014,06,21,06,51,10.40
2014,06,21,06,52,10.40
2014,06,21,06,53,10.50
2014,06,21,06,54,10.50
2014,06,21,06,55,10.60
2014,06,21,06,56,10.60
2014,06,21,06,57,10.70
2014,06,21,06,58,10.70
2014,06,21,06,59,10.70
2014,06,21,07,00,10.80
2014,06,21,07,01,10.80
2014,06,21,07,02,10.80
2014,06,21,07,03,10.90
2014,06,21,07,04,10.90
2014,06,21,07,05,11.00
2014,06,21,07,06,11.00
2014,06,21,07,07,11.10
2014,06,21,07,08,11.10
2014,06,21,07,09,11.20
2014,06,21,07,10,11.20
2014,06,21,07,11,11.20
2014,06,21,07,12,11.30
2014,06,21,07,13,11.30
2014,06,21,07,14,11.40
2014,06,21,07,15,11.40
2014,06,21,07,16,11.40
2014,06,21,07,17,11.50
2014,06,21,07,18,11.50
2014,06,21,07,19,11.60
2014,06,21,07,20,11.60
2014,06,21,07,21,11.70
2014,06,21,07,22,11.70
2014,06,21,07,23,11.70
2014,06,21,07,24,11.70
2014,06,21,07,25,11.80
2014,06,21,07,26,11.80
2014,06,21,07,27,11.80
2014,06,21,07,28,11.90
2014,06,21,07,29,11.90
2014,06,21,07,30,11.90
2014,06,21,07,31,11.90
2014,06,21,07,32,11.90
2014,06,21,07,33,11.90
2014,06,21,07,34,12.00
2014,06,21,07,35,12.00
2014,06,21,07,36,12.10
2014,06,21,07,37,12.10
2014,06,21,07,38,12.20
2014,06,21,07,39,12.20
2014,06,21,07,40,12.20
2014,06,21,07,41,12.30
2014,06,21,07,42,12.30
2014,06,21,07,43,12.40
2014,06,21,07,44,12.50
2014,06,21,07,45,12.60
2014,06,21,07,46,12.60
2014,06,21,07,47,12.70
2014,06,21,07,48,12.70
2014,06,21,07,49,12.70
2014,06,21,07,50,12.80
2014,06,21,07,51,12.80
2014,06,21,07,52,12.80
2014,06,21,07,53,12.80
2014,06,21,07,54,12.80
2014,06,21,07,55,12.80
2014,06,21,07,56,12.70
2014,06,21,07,57,12.70
2014,06,21,07,58,12.70
2014,06,21,07,59,12.70
2014,06,21,08,00,12.70
2014,06,21,08,01,12.70
2014,06,21,08,02,12.70
2014,06,21,08,03,12.70
2014,06,21,08,04,12.70
2014,06,21,08,05,12.70
2014,06,21,08,06,12.70
2014,06,21,08,07,12.70
2014,06,21,08,08,12.70
2014,06,21,08,09,12.70
2014,06,21,08,10,12.70
2014,06,21,08,11,12.70
2014,06,21,08,12,12.60
2014,06,21,08,13,12.60
2014,06,21,08,14,12.60
2014,06,21,08,15,12.60
2014,06,21,08,16,12.60
2014,06,21,08,17,12.60
2014,06,21,08,18,12.60
2014,06,21,08,19,12.50
2014,06,21,08,20,12.50
2014,06,21,08,21,12.40
2014,06,21,08,22,12.40
2014,06,21,08,23,12.40
2014,06,21,08,24,12.40
2014,06,21,08,25,12.40
2014,06,21,08,26,12.30
2014,06,21,08,27,12.30
2014,06,21,08,28,12.30
2014,06,21,08,29,12.30
2014,06,21,08,30,12.40
2014,06,21,08,31,12.40
2014,06,21,08,32,12.50
2014,06,21,08,33,12.50
2014,06,21,08,34,12.60
2014,06,21,08,35,12.60
2014,06,21,08,36,12.70
2014,06,21,08,37,12.70
2014,06,21,08,38,12.70
2014,06,21,08,39,12.80
2014,06,21,08,40,12.80
2014,06,21,08,41,12.90
2014,06,21,08,42,12.90
2014,06,21,08,43,13.00
2014,06,21,08,44,13.00
2014,06,21,08,45,13.10
2014,06,21,08,46,13.20
2014,06,21,08,47,13.20
2014,06,21,08,48,13.30
2014,06,21,08,49,13.30
2014,06,21,08,50,13.30
2014,06,21,08,51,13.30
2014,06,21,08,52,13.30
2014,06,21,08,53,13.40
2014,06,21,08,54,13.50
2014,06,21,08,55,13.50
2014,06,21,08,56,13.60
2014,06,21,08,57,13.70
2014,06,21,08,58,13.70
2014,06,21,08,59,13.80
2014,06,21,09,00,13.80
2014,06,21,09,01,13.80
2014,06,21,09,02,13.80
2014,06,21,09,03,13.80
2014,06,21,09,04,13.80
2014,06,21,09,05,13.90
2014,06,21,09,06,13.90
2014,06,21,09,07,14.00
2014,06,21,09,08,14.00
2014,06,21,09,09,14.00
2014,06,21,09,10,14.10
2014,06,21,09,11,14.10
2014,06,21,09,12,14.10
2014,06,21,09,13,14.10
2014,06,21,09,14,14.00
2014,06,21,09,15,14.00
2014,06,21,09,16,14.00
2014,06,21,09,17,14.10
2014,06,21,09,18,14.10
2014,06,21,09,19,14.10
2014,06,21,09,20,14.20
2014,06,21,09,21,14.20
2014,06,21,09,22,14.20
2014,06,21,09,23,14.10
2014,06,21,09,24,14.10
2014,06,21,09,25,14.10
2014,06,21,09,26,14.10
2014,06,21,09,27,14.10
2014,06,21,09,28,14.10
2014,06,21,09,29,14.00
2014,06,21,09,30,13.90
2014,06,21,09,31,13.80
2014,06,21,09,32,13.80
2014,06,21,09,33,13.70
2014,06,21,09,34,13.70
2014,06,21,09,35,13.70
2014,06,21,09,36,13.70
2014,06,21,09,37,13.70
2014,06,21,09,38,13.70
2014,06,21,09,39,13.70
2014,06,21,09,40,13.70
2014,06,21,09,41,13.80
2014,06,21,09,42,13.80
2014,06,21,09,43,13.80
2014,06,21,09,44,13.90
2014,06,21,09,45,13.90
2014,06,21,09,46,13.90
2014,06,21,09,47,13.90
2014,06,21,09,48,13.90
2014,06,21,09,49,13.90
2014,06,21,09,50,13.90
2014,06,21,09,51,13.90
2014,06,21,09,52,13.90
2014,06,21,09,53,14.00
2014,06,21,09,54,14.00
2014,06,21,09,55,14.10
2014,06,21,09,56,14.10
2014,06,21,09,57,14.10
2014,06,21,09,58,14.20
2014,06,21,09,59,14.20
2014,06,21,10,00,14.10
2014,06,21,10,01,14.00
2014,06,21,10,02,14.00
2014,06,21,10,03,13.90
2014,06,21,10,04,13.90
2014,06,21,10,05,13.90
2014,06,21,10,06,13.90
2014,06,21,10,07,14.00
2014,06,21,10,08,14.10
2014,06,21,10,09,14.20
2014,06,21,10,10,14.20
2014,06,21,10,11,14.20
2014,06,21,10,12,14.10
2014,06,21,10,13,14.20
2014,06,21,10,14,14.10
2014,06,21,10,15,14.10
2014,06,21,10,16,14.00
2014,06,21,10,17,14.00
2014,06,21,10,18,14.00
2014,06,21,10,19,14.00
2014,06,21,10,20,14.10
2014,06,21,10,21,14.10
2014,06,21,10,22,14.20
2014,06,21,10,23,14.30
2014,06,21,10,24,14.40
2014,06,21,10,25,14.50
2014,06,21,10,26,14.60
2014,06,21,10,27,14.60
2014,06,21,10,28,14.60
2014,06,21,10,29,14.60
2014,06,21,10,30,14.70
2014,06,21,10,31,14.70
2014,06,21,10,32,14.70
2014,06,21,10,33,14.70
2014,06,21,10,34,14.80
2014,06,21,10,35,14.80
2014,06,21,10,36,14.70
2014,06,21,10,37,14.70
2014,06,21,10,38,14.70
2014,06,21,10,39,14.60
2014,06,21,10,40,14.60
2014,06,21,10,41,14.70
2014,06,21,10,42,14.80
2014,06,21,10,43,14.80
2014,06,21,10,44,14.90
2014,06,21,10,45,14.90
2014,06,21,10,46,14.90
2014,06,21,10,47,14.90
2014,06,21,10,48,14.90
2014,06,21,10,49,14.90
2014,06,21,10,50,15.00
2014,06,21,10,51,15.10
2014,06,21,10,52,15.10
2014,06,21,10,53,15.20
2014,06,21,10,54,15.30
2014,06,21,10,55,15.40
2014,06,21,10,56,15.40
2014,06,21,10,57,15.50
2014,06,21,10,58,15.50
2014,06,21,10,59,15.50
2014,06,21,11,00,15.50
2014,06,21,11,01,15.60
2014,06,21,11,02,15.60
2014,06,21,11,03,15.60
2014,06,21,11,04,15.70
2014,06,21,11,05,15.70
2014,06,21,11,06,15.80
2014,06,21,11,07,15.80
2014,06,21,11,08,15.80
2014,06,21,11,09,15.90
2014,06,21,11,10,15.90
2014,06,21,11,11,15.90
2014,06,21,11,12,15.80
2014,06,21,11,13,15.80
2014,06,21,11,14,15.70
2014,06,21,11,15,15.70
2014,06,21,11,16,15.70
2014,06,21,11,17,15.70
2014,06,21,11,18,15.70
2014,06,21,11,19,15.70
2014,06,21,11,20,15.80
2014,06,21,11,21,15.80
2014,06,21,11,22,15.80
2014,06,21,11,23,15.80
2014,06,21,11,24,15.80
2014,06,21,11,25,15.90
2014,06,21,11,26,15.90
2014,06,21,11,27,15.90
2014,06,21,11,28,15.90
2014,06,21,11,29,15.80
2014,06,21,11,30,15.80
2014,06,21,11,31,15.80
2014,06,21,11,32,15.80
2014,06,21,11,33,15.80
2014,06,21,11,34,15.70
2014,06,21,11,35,15.70
2014,06,21,11,36,15.70
2014,06,21,11,37,15.70
2014,06,21,11,38,15.60
2014,06,21,11,39,15.50
2014,06,21,11,40,15.40
2014,06,21,11,41,15.30
2014,06,21,11,42,15.30
2014,06,21,11,43,15.30
2014,06,21,11,44,15.40
2014,06,21,11,45,15.40
2014,06,21,11,46,15.60
2014,06,21,11,47,15.60
2014,06,21,11,48,15.70
2014,06,21,11,49,15.80
2014,06,21,11,50,15.80
2014,06,21,11,51,16.00
2014,06,21,11,52,16.20
2014,06,21,11,53,16.30
2014,06,21,11,54,16.30
2014,06,21,11,55,16.40
2014,06,21,11,56,16.50
2014,06,21,11,57,16.50
2014,06,21,11,58,16.60
2014,06,21,11,59,16.60
2014,06,21,12,00,16.60
2014,06,21,12,01,16.70
2014,06,21,12,02,16.60
2014,06,21,12,03,16.50
2014,06,21,12,04,16.50
2014,06,21,12,05,16.60
2014,06,21,12,06,16.60
2014,06,21,12,07,16.50
2014,06,21,12,08,16.40
2014,06,21,12,09,16.40
2014,06,21,12,10,16.30
2014,06,21,12,11,16.30
2014,06,21,12,12,16.20
2014,06,21,12,13,16.10
2014,06,21,12,14,16.10
2014,06,21,12,15,16.10
2014,06,21,12,16,16.20
2014,06,21,12,17,16.20
2014,06,21,12,18,16.20
2014,06,21,12,19,16.20
2014,06,21,12,20,16.30
2014,06,21,12,21,16.40
2014,06,21,12,22,16.40
2014,06,21,12,23,16.50
2014,06,21,12,24,16.60
2014,06,21,12,25,16.60
2014,06,21,12,26,16.60
2014,06,21,12,27,16.60
2014,06,21,12,28,16.60
2014,06,21,12,29,16.50
2014,06,21,12,30,16.40
2014,06,21,12,31,16.30
2014,06,21,12,32,16.20
2014,06,21,12,33,16.20
2014,06,21,12,34,16.20
2014,06,21,12,35,16.20
2014,06,21,12,36,16.30
2014,06,21,12,37,16.40
2014,06,21,12,38,16.40
2014,06,21,12,39,16.40
2014,06,21,12,40,16.30
2014,06,21,12,41,16.30
2014,06,21,12,42,16.30
2014,06,21,12,43,16.40
2014,06,21,12,44,16.50
2014,06,21,12,45,16.60
2014,06,21,12,46,16.70
2014,06,21,12,47,16.70
2014,06,21,12,48,16.80
2014,06,21,12,49,16.80
2014,06,21,12,50,16.80
2014,06,21,12,51,16.90
2014,06,21,12,52,17.10
2014,06,21,12,53,17.20
2014,06,21,12,54,17.30
2014,06,21,12,55,17.40
2014,06,21,12,56,17.40
2014,06,21,12,57,17.30
2014,06,21,12,58,17.10
2014,06,21,12,59,17.10
2014,06,21,13,00,17.00
2014,06,21,13,01,17.10
2014,06,21,13,02,17.10
2014,06,21,13,03,17.10
2014,06,21,13,04,17.00
2014,06,21,13,05,16.90
2014,06,21,13,06,16.90
2014,06,21,13,07,16.80
2014,06,21,13,08,16.80
2014,06,21,13,09,16.90
2014,06,21,13,10,16.90
2014,06,21,13,11,17.00
2014,06,21,13,12,17.00
2014,06,21,13,13,17.10
2014,06,21,13,14,17.30
2014,06,21,13,15,17.30
2014,06,21,13,16,17.30
2014,06,21,13,17,17.40
2014,06,21,13,18,17.30
2014,06,21,13,19,17.30
2014,06,21,13,20,17.40
2014,06,21,13,21,17.40
2014,06,21,13,22,17.40
2014,06,21,13,23,17.30
2014,06,21,13,24,17.30
2014,06,21,13,25,17.30
2014,06,21,13,26,17.30
2014,06,21,13,27,17.30
2014,06,21,13,28,17.30
2014,06,21,13,29,17.30
2014,06,21,13,30,17.40
2014,06,21,13,31,17.40
2014,06,21,13,32,17.40
2014,06,21,13,33,17.40
2014,06,21,13,34,17.40
2014,06,21,13,35,17.40
2014,06,21,13,36,17.30
2014,06,21,13,37,17.30
2014,06,21,13,38,17.30
2014,06,21,13,39,17.30
2014,06,21,13,40,17.40
2014,06,21,13,41,17.50
2014,06,21,13,42,17.60
2014,06,21,13,43,17.70
2014,06,21,13,44,17.80
2014,06,21,13,45,17.80
2014,06,21,13,46,17.80
2014,06,21,13,47,17.90
2014,06,21,13,48,18.00
2014,06,21,13,49,18.00
2014,06,21,13,50,18.00
2014,06,21,13,51,18.00
2014,06,21,13,52,18.00
2014,06,21,13,53,17.90
2014,06,21,13,54,17.90
2014,06,21,13,55,17.80
2014,06,21,13,56,17.70
2014,06,21,13,57,17.60
2014,06,21,13,58,17.50
2014,06,21,13,59,17.50
2014,06,21,14,00,17.50
2014,06,21,14,01,17.60
2014,06,21,14,02,17.70
2014,06,21,14,03,17.80
2014,06,21,14,04,17.90
2014,06,21,14,05,18.00
2014,06,21,14,06,18.10
2014,06,21,14,07,18.10
2014,06,21,14,08,18.20
2014,06,21,14,09,18.30
2014,06,21,14,10,18.30
2014,06,21,14,11,18.40
2014,06,21,14,12,18.40
2014,06,21,14,13,18.30
2014,06,21,14,14,18.20
2014,06,21,14,15,18.10
2014,06,21,14,16,18.00
2014,06,21,14,17,18.00
2014,06,21,14,18,17.90
2014,06,21,14,19,17.90
2014,06,21,14,20,18.00
2014,06,21,14,21,18.00
2014,06,21,14,22,18.10
2014,06,21,14,23,18.20
2014,06,21,14,24,18.20
2014,06,21,14,25,18.20
2014,06,21,14,26,18.20
2014,06,21,14,27,18.20
2014,06,21,14,28,18.20
2014,06,21,14,29,18.20
2014,06,21,14,30,18.20
2014,06,21,14,31,18.10
2014,06,21,14,32,18.10
2014,06,21,14,33,18.10
2014,06,21,14,34,18.10
2014,06,21,14,35,18.10
2014,06,21,14,36,18.20
2014,06,21,14,37,18.20
2014,06,21,14,38,18.30
2014,06,21,14,39,18.40
2014,06,21,14,40,18.40
2014,06,21,14,41,18.40
2014,06,21,14,42,18.40
2014,06,21,14,43,18.30
2014,06,21,14,44,18.30
2014,06,21,14,45,18.40
2014,06,21,14,46,18.40
2014,06,21,14,47,18.40
2014,06,21,14,48,18.30
2014,06,21,14,49,18.30
2014,06,21,14,50,18.30
2014,06,21,14,51,18.30
2014,06,21,14,52,18.40
2014,06,21,14,53,18.40
2014,06,21,14,54,18.50
2014,06,21,14,55,18.50
2014,06,21,14,56,18.50
2014,06,21,14,57,18.50
2014,06,21,14,58,18.50
2014,06,21,14,59,18.40
2014,06,21,15,00,18.30
2014,06,21,15,01,18.30
2014,06,21,15,02,18.40
2014,06,21,15,03,18.40
2014,06,21,15,04,18.30
2014,06,21,15,05,18.20
2014,06,21,15,06,18.20
2014,06,21,15,07,18.20
2014,06,21,15,08,18.20
2014,06,21,15,09,18.30
2014,06,21,15,10,18.40
2014,06,21,15,11,18.40
2014,06,21,15,12,18.60
2014,06,21,15,13,18.80
2014,06,21,15,14,18.90
2014,06,21,15,15,19.00
2014,06,21,15,16,19.00
2014,06,21,15,17,19.10
2014,06,21,15,18,19.10
2014,06,21,15,19,19.10
2014,06,21,15,20,19.20
2014,06,21,15,21,19.30
2014,06,21,15,22,19.30
2014,06,21,15,23,19.40
2014,06,21,15,24,19.40
2014,06,21,15,25,19.30
2014,06,21,15,26,19.30
2014,06,21,15,27,19.30
2014,06,21,15,28,19.30
2014,06,21,15,29,19.20
2014,06,21,15,30,19.20
2014,06,21,15,31,19.10
2014,06,21,15,32,19.10
2014,06,21,15,33,19.10
2014,06,21,15,34,19.00
2014,06,21,15,35,18.90
2014,06,21,15,36,18.90
2014,06,21,15,37,18.90
2014,06,21,15,38,19.00
2014,06,21,15,39,19.00
2014,06,21,15,40,19.10
2014,06,21,15,41,19.10
2014,06,21,15,42,19.10
2014,06,21,15,43,19.00
2014,06,21,15,44,19.00
2014,06,21,15,45,18.90
2014,06,21,15,46,18.80
2014,06,21,15,47,18.80
2014,06,21,15,48,18.80
2014,06,21,15,49,18.80
2014,06,21,15,50,18.80
2014,06,21,15,51,18.90
2014,06,21,15,52,18.90
2014,06,21,15,53,19.00
2014,06,21,15,54,19.00
2014,06,21,15,55,19.10
2014,06,21,15,56,19.20
2014,06,21,15,57,19.20
2014,06,21,15,58,19.30
2014,06,21,15,59,19.50
2014,06,21,16,00,19.50
2014,06,21,16,01,19.60
2014,06,21,16,02,19.60
2014,06,21,16,03,19.60
2014,06,21,16,04,19.60
2014,06,21,16,05,19.50
2014,06,21,16,06,19.40
2014,06,21,16,07,19.40
2014,06,21,16,08,19.40
2014,06,21,16,09,19.50
2014,06,21,16,10,19.50
2014,06,21,16,11,19.50
2014,06,21,16,12,19.50
2014,06,21,16,13,19.60
2014,06,21,16,14,19.60
2014,06,21,16,15,19.60
2014,06,21,16,16,19.60
2014,06,21,16,17,19.60
2014,06,21,16,18,19.60
2014,06,21,16,19,19.60
2014,06,21,16,20,19.60
2014,06,21,16,21,19.70
2014,06,21,16,22,19.80
2014,06,21,16,23,19.80
2014,06,21,16,24,19.90
2014,06,21,16,25,19.90
2014,06,21,16,26,20.00
2014,06,21,16,27,20.00
2014,06,21,16,28,20.10
2014,06,21,16,29,20.10
2014,06,21,16,30,20.20
2014,06,21,16,31,20.10
2014,06,21,16,32,20.00
2014,06,21,16,33,19.80
2014,06,21,16,34,19.70
2014,06,21,16,35,19.80
2014,06,21,16,36,19.80
2014,06,21,16,37,19.90
2014,06,21,16,38,20.00
2014,06,21,16,39,20.10
2014,06,21,16,40,20.20
2014,06,21,16,41,20.30
2014,06,21,16,42,20.30
2014,06,21,16,43,20.40
2014,06,21,16,44,20.50
2014,06,21,16,45,20.70
2014,06,21,16,46,20.70
2014,06,21,16,47,20.60
2014,06,21,16,48,20.40
2014,06,21,16,49,20.30
2014,06,21,16,50,20.20
2014,06,21,16,51,20.00
2014,06,21,16,52,20.00
2014,06,21,16,53,20.00
2014,06,21,16,54,20.00
2014,06,21,16,55,20.00
2014,06,21,16,56,20.00
2014,06,21,16,57,20.00
2014,06,21,16,58,20.10
2014,06,21,16,59,20.20
2014,06,21,17,00,20.20
2014,06,21,17,01,20.20
2014,06,21,17,02,20.20
2014,06,21,17,03,20.20
2014,06,21,17,04,20.20
2014,06,21,17,05,20.30
2014,06,21,17,06,20.30
2014,06,21,17,07,20.40
2014,06,21,17,08,20.50
2014,06,21,17,09,20.60
2014,06,21,17,10,20.70
2014,06,21,17,11,20.80
2014,06,21,17,12,20.90
2014,06,21,17,13,20.90
2014,06,21,17,14,20.90
2014,06,21,17,15,20.90
2014,06,21,17,16,20.80
2014,06,21,17,17,20.70
2014,06,21,17,18,20.60
2014,06,21,17,19,20.50
2014,06,21,17,20,20.40
2014,06,21,17,21,20.20
2014,06,21,17,22,20.10
2014,06,21,17,23,19.90
2014,06,21,17,24,19.80
2014,06,21,17,25,19.80
2014,06,21,17,26,19.70
2014,06,21,17,27,19.70
2014,06,21,17,28,19.70